| Date | Time | Temp. (oF) | Dew Point (oF) | Rel. Hum. (%) | Press. (in.) | Wind Dir. | Wind Speed (mph) | Hourly Rainfall (in.) |
|
|---|---|---|---|---|---|---|---|---|---|
| 1 | 07/22 | 00:00 | 66 | 64 | 95 | 30.12 | ESE | 0 | 0.00 |
| 2 | 07/21 | 23:00 | 65 | 63 | 94 | 30.12 | ESE | 0 | 0.00 |
| 3 | 07/21 | 22:00 | 66 | 63 | 91 | 30.11 | NNE | 0 | 0.00 |
| 4 | 07/21 | 21:00 | 68 | 63 | 87 | 30.10 | NE | 0 | 0.00 |
| 5 | 07/21 | 20:00 | 70 | 64 | 83 | 30.09 | E | 0 | 0.00 |
| 6 | 07/21 | 19:00 | 71 | 65 | 82 | 30.07 | NNE | 0 | 0.00 |
| 7 | 07/21 | 18:00 | 71 | 65 | 82 | 30.07 | ESE | 0 | 0.00 |
| 8 | 07/21 | 17:00 | 71 | 65 | 82 | 30.07 | NNE | 1 | 0.00 |
| 9 | 07/21 | 16:00 | 70 | 64 | 83 | 30.09 | ENE | 4 | 0.00 |
| 10 | 07/21 | 15:00 | 70 | 64 | 84 | 30.10 | E | 5 | 0.00 |
| 11 | 07/21 | 14:00 | 70 | 64 | 82 | 30.11 | NE | 4 | 0.00 |
| 12 | 07/21 | 13:00 | 71 | 64 | 81 | 30.12 | E | 5 | 0.00 |
| 13 | 07/21 | 12:00 | 71 | 63 | 78 | 30.11 | NE | 5 | 0.00 |
| 14 | 07/21 | 11:00 | 73 | 64 | 76 | 30.13 | ENE | 3 | 0.00 |
| 15 | 07/21 | 10:00 | 71 | 63 | 77 | 30.13 | E | 3 | 0.00 |
| 16 | 07/21 | 09:00 | 70 | 63 | 79 | 30.12 | ESE | 2 | 0.00 |
| 17 | 07/21 | 08:00 | 69 | 63 | 82 | 30.12 | ENE | 3 | 0.00 |
| 18 | 07/21 | 07:00 | 69 | 62 | 80 | 30.12 | NNE | 5 | 0.00 |
| 19 | 07/21 | 06:00 | 68 | 60 | 78 | 30.12 | ENE | 2 | 0.00 |
| 20 | 07/21 | 05:00 | 68 | 60 | 78 | 30.11 | ENE | 3 | 0.00 |
| 21 | 07/21 | 04:00 | 68 | 60 | 77 | 30.11 | ENE | 4 | 0.00 |
| 22 | 07/21 | 03:00 | 69 | 62 | 79 | 30.12 | E | 0 | 0.00 |
| 23 | 07/21 | 02:00 | 69 | 63 | 84 | 30.12 | NE | 0 | 0.00 |
| 24 | 07/21 | 01:00 | 70 | 64 | 84 | 30.13 | NNE | 0 | 0.00 |